TimePST,TemperatureF,Dew PointF,Humidity,Sea Level PressureIn,VisibilityMPH,Wind Direction,Wind SpeedMPH,Gust SpeedMPH,PrecipitationIn,Events,Conditions,WindDirDegrees,DateUTC
12:53 AM,19.9,18.0,92,29.77,10.0,South,5.8,-,N/A,,Overcast,180,2013-02-19 08:53:00
1:53 AM,19.9,17.1,89,29.75,10.0,South,5.8,-,N/A,,Mostly Cloudy,170,2013-02-19 09:53:00
2:53 AM,19.9,16.0,85,29.74,10.0,SSE,5.8,-,N/A,,Mostly Cloudy,150,2013-02-19 10:53:00
3:53 AM,21.0,16.0,81,29.72,10.0,SE,5.8,-,N/A,,Overcast,140,2013-02-19 11:53:00
4:53 AM,19.9,17.1,89,29.73,6.0,SE,6.9,-,0.00,Snow,Light Snow,140,2013-02-19 12:53:00
5:53 AM,19.9,18.0,92,29.71,7.0,SE,6.9,-,0.00,,Overcast,130,2013-02-19 13:53:00
6:11 AM,21.2,17.6,86,29.58,2.5,SE,5.8,-,0.00,Snow,Light Snow,130,2013-02-19 14:11:00
6:22 AM,19.4,17.6,93,29.58,1.2,SE,5.8,-,0.00,Snow,Light Snow,140,2013-02-19 14:22:00
6:34 AM,21.2,19.4,93,29.58,1.0,SE,4.6,-,0.00,Snow,Light Snow,130,2013-02-19 14:34:00
6:53 AM,21.0,19.0,92,29.71,1.0,ESE,6.9,-,0.00,Snow,Light Snow,120,2013-02-19 14:53:00
7:05 AM,21.2,19.4,93,29.58,0.8,ESE,6.9,-,0.00,Snow,Light Snow,110,2013-02-19 15:05:00
7:18 AM,21.2,19.4,93,29.57,1.0,ESE,4.6,-,0.00,Snow,Light Snow,120,2013-02-19 15:18:00
7:34 AM,19.4,19.4,100,29.57,2.0,ESE,5.8,-,0.00,Snow,Light Snow,120,2013-02-19 15:34:00
7:43 AM,21.2,17.6,86,29.57,5.0,SE,4.6,-,0.00,Snow,Light Snow,130,2013-02-19 15:43:00
7:53 AM,19.9,18.0,92,29.72,-9999.0,Variable,4.6,-,0.00,Snow,Light Snow,0,2013-02-19 15:53:00
8:05 AM,19.4,19.4,100,29.58,1.8,Variable,4.6,-,0.00,Snow,Light Snow,0,2013-02-19 16:05:00
8:12 AM,21.2,19.4,93,29.58,0.8,Variable,4.6,-,0.00,Snow,Light Snow,0,2013-02-19 16:12:00
8:28 AM,21.2,19.4,93,29.58,0.5,SE,5.8,-,0.00,Fog-Snow,Snow,130,2013-02-19 16:28:00
8:50 AM,21.2,19.4,93,29.58,0.8,Variable,4.6,-,0.00,Snow,Light Snow,0,2013-02-19 16:50:00
8:53 AM,21.0,19.0,92,29.72,0.8,Variable,3.5,-,0.00,Snow,Light Snow,0,2013-02-19 16:53:00
9:18 AM,21.2,19.4,93,29.56,1.2,Variable,5.8,-,0.00,Snow,Light Snow,0,2013-02-19 17:18:00
9:28 AM,21.2,21.2,100,29.56,2.0,Variable,5.8,-,0.00,Snow,Light Snow,0,2013-02-19 17:28:00
9:39 AM,23.0,21.2,93,29.56,5.0,Variable,5.8,-,0.00,Snow,Light Snow,0,2013-02-19 17:39:00
9:49 AM,21.2,21.2,100,29.56,7.0,SE,3.5,-,0.00,,Overcast,130,2013-02-19 17:49:00
10:02 AM,21.2,21.2,100,29.56,2.5,SE,5.8,-,N/A,,Overcast,140,2013-02-19 18:02:00
10:18 AM,23.0,21.2,93,29.56,4.0,Variable,4.6,-,0.00,Snow,Light Snow,0,2013-02-19 18:18:00
10:53 AM,24.1,23.0,96,29.69,4.0,Variable,3.5,-,0.00,,Overcast,0,2013-02-19 18:53:00
10:56 AM,24.8,23.0,93,29.56,1.8,Calm,Calm,-,0.00,Snow,Light Snow,0,2013-02-19 18:56:00
11:01 AM,23.0,23.0,100,29.56,0.8,Variable,3.5,-,0.00,Snow,Light Snow,0,2013-02-19 19:01:00
11:14 AM,23.0,23.0,100,29.56,1.2,Variable,4.6,-,0.00,Snow,Light Snow,0,2013-02-19 19:14:00
11:24 AM,24.8,23.0,93,29.57,2.0,Variable,3.5,-,0.00,Snow,Light Snow,0,2013-02-19 19:24:00
11:32 AM,24.8,23.0,93,29.57,5.0,Variable,3.5,-,0.00,Snow,Light Snow,0,2013-02-19 19:32:00
11:49 AM,24.8,21.2,86,29.56,5.0,Calm,Calm,-,0.00,Snow,Light Snow,0,2013-02-19 19:49:00
11:53 AM,24.1,23.0,96,29.70,4.0,Calm,Calm,-,0.00,Snow,Light Snow,0,2013-02-19 19:53:00
11:58 AM,24.8,23.0,93,29.56,2.5,Calm,Calm,-,0.00,Snow,Light Snow,0,2013-02-19 19:58:00
12:06 PM,24.8,23.0,93,29.56,2.5,Variable,3.5,-,0.00,Snow,Light Snow,0,2013-02-19 20:06:00
12:36 PM,23.0,21.2,93,29.57,1.5,Calm,Calm,-,0.00,Snow,Light Snow,0,2013-02-19 20:36:00
12:51 PM,23.0,21.2,93,29.57,2.0,Calm,Calm,-,0.00,Snow,Light Snow,0,2013-02-19 20:51:00
12:53 PM,23.0,21.9,96,29.70,2.0,Variable,3.5,-,0.00,Snow,Light Snow,0,2013-02-19 20:53:00
12:59 PM,23.0,21.2,93,29.57,2.0,Calm,Calm,-,0.00,Snow,Light Snow,0,2013-02-19 20:59:00
1:23 PM,24.8,21.2,86,29.57,1.2,Calm,Calm,-,0.00,Snow,Light Snow,0,2013-02-19 21:23:00
1:36 PM,23.0,21.2,93,29.57,2.0,Variable,4.6,-,0.00,Snow,Light Snow,0,2013-02-19 21:36:00
1:53 PM,24.1,23.0,96,29.71,6.0,Variable,5.8,-,0.00,Snow,Light Snow,0,2013-02-19 21:53:00
2:00 PM,23.0,21.2,93,29.57,1.8,Variable,3.5,-,0.00,Snow,Light Snow,0,2013-02-19 22:00:00
2:09 PM,23.0,21.2,93,29.58,1.2,Variable,4.6,-,0.00,Snow,Light Snow,0,2013-02-19 22:09:00
2:49 PM,23.0,21.2,93,29.59,0.8,SW,3.5,-,0.00,Snow,Light Snow,230,2013-02-19 22:49:00
2:53 PM,23.0,21.9,96,29.72,0.8,Calm,Calm,-,0.00,Snow,Light Snow,0,2013-02-19 22:53:00
3:09 PM,23.0,21.2,93,29.59,1.5,Variable,3.5,-,0.00,Snow,Light Snow,0,2013-02-19 23:09:00
3:15 PM,23.0,21.2,93,29.59,3.0,Calm,Calm,-,0.00,Snow,Light Snow,0,2013-02-19 23:15:00
3:32 PM,23.0,21.2,93,29.59,2.5,SW,3.5,-,0.00,Snow,Light Snow,220,2013-02-19 23:32:00
4:53 PM,23.0,21.9,96,29.74,5.0,Calm,Calm,-,0.00,,Overcast,0,2013-02-20 00:53:00
4:57 PM,23.0,21.2,93,29.61,1.5,Calm,Calm,-,N/A,,Overcast,0,2013-02-20 00:57:00
4:59 PM,23.0,21.2,93,29.61,0.8,Calm,Calm,-,N/A,,Overcast,0,2013-02-20 00:59:00
5:08 PM,23.0,21.2,93,29.61,0.2,Calm,Calm,-,N/A,Fog,Light Freezing Fog,0,2013-02-20 01:08:00
5:25 PM,23.0,21.2,93,29.61,1.0,Calm,Calm,-,0.00,,Mist,0,2013-02-20 01:25:00
5:37 PM,21.2,21.2,100,29.62,2.0,Calm,Calm,-,0.00,,Overcast,0,2013-02-20 01:37:00
5:40 PM,21.2,21.2,100,29.62,1.2,Calm,Calm,-,0.00,,Overcast,0,2013-02-20 01:40:00
5:49 PM,23.0,21.2,93,29.62,0.8,Calm,Calm,-,0.00,,Mist,0,2013-02-20 01:49:00
5:53 PM,23.0,21.9,96,29.76,0.8,Calm,Calm,-,0.00,,Mist,0,2013-02-20 01:53:00
5:58 PM,23.0,21.2,93,29.62,0.2,Calm,Calm,-,0.00,Fog-Snow,Light Snow,0,2013-02-20 01:58:00
6:53 PM,21.9,21.9,100,29.77,0.2,Variable,3.5,-,0.00,Fog,Light Freezing Fog,0,2013-02-20 02:53:00
7:04 PM,21.2,21.2,100,29.63,0.5,Variable,3.5,-,N/A,Fog,Light Freezing Fog,0,2013-02-20 03:04:00
7:39 PM,23.0,21.2,93,29.64,1.0,Variable,3.5,-,N/A,,Overcast,0,2013-02-20 03:39:00
7:42 PM,23.0,21.2,93,29.64,0.8,Variable,3.5,-,N/A,,Mist,0,2013-02-20 03:42:00
7:49 PM,23.0,21.2,93,29.64,0.2,NNW,4.6,-,N/A,Fog,Light Freezing Fog,330,2013-02-20 03:49:00
7:53 PM,23.0,21.0,92,29.78,0.2,NNW,4.6,-,N/A,Fog,Light Freezing Fog,340,2013-02-20 03:53:00
8:29 PM,24.8,21.2,86,29.65,0.5,Calm,Calm,-,N/A,Fog,Light Freezing Fog,0,2013-02-20 04:29:00
8:36 PM,24.8,21.2,86,29.65,0.2,Calm,Calm,-,N/A,Fog,Light Freezing Fog,0,2013-02-20 04:36:00
8:53 PM,24.1,21.9,91,29.78,0.2,Calm,Calm,-,0.00,Fog-Snow,Snow,0,2013-02-20 04:53:00
8:57 PM,24.8,21.2,86,29.66,0.5,Variable,3.5,-,0.00,Fog-Snow,Snow,0,2013-02-20 04:57:00
9:23 PM,24.8,21.2,86,29.66,-9999.0,Calm,Calm,-,0.00,Snow,Light Snow,0,2013-02-20 05:23:00
9:53 PM,24.1,21.0,88,29.79,0.2,Variable,3.5,-,0.00,Fog-Snow,Light Snow,0,2013-02-20 05:53:00
10:05 PM,24.8,21.2,86,29.67,0.5,NW,4.6,-,0.00,Fog,Light Freezing Fog,320,2013-02-20 06:05:00
10:15 PM,23.0,19.4,86,29.67,0.8,Variable,4.6,-,0.00,Snow,Light Snow,0,2013-02-20 06:15:00
10:22 PM,23.0,19.4,86,29.67,0.5,Variable,4.6,-,0.00,Fog-Snow,Light Snow,0,2013-02-20 06:22:00
10:51 PM,23.0,19.4,86,29.68,0.2,Variable,3.5,-,0.00,Fog,Light Freezing Fog,0,2013-02-20 06:51:00
10:53 PM,23.0,19.9,88,29.80,0.2,Variable,3.5,-,0.00,Fog,Light Freezing Fog,0,2013-02-20 06:53:00
11:01 PM,23.0,19.4,86,29.68,0.5,Variable,3.5,-,N/A,Fog,Light Freezing Fog,0,2013-02-20 07:01:00
11:53 PM,23.0,19.9,88,29.81,0.8,Calm,Calm,-,N/A,,Mist,0,2013-02-20 07:53:00